Location: Unspecified
(0.0000°N, 0.0000°E)
Time: 21:26:20
(UTC+00:00)

Vanguard 1 - Visible Passes

Search period start: 16 April 2026 00:00
Search period end: 26 April 2026 00:00
Orbit: 654 x 3817 km, 34.2° (Epoch: 14 April)

Date Brightness Start Highest point End Pass type
(mag) Time Alt. Az. Time Alt. Az. Time Alt. Az.
16 Apr 13.8 00:33:42 10° WNW 00:49:19 21° NNW 01:02:43 10° NNE visible
16 Apr 13.7 03:14:25 10° NNW 03:21:36 13° N 03:27:26 10° NNE visible
16 Apr 12.7 05:40:21 10° NNW 05:48:55 23° NNE 05:54:36 10° ENE visible
16 Apr 12.5 19:54:25 10° SW 20:10:24 83° NW 20:34:12 10° NE visible
16 Apr 13.4 22:20:06 10° W 22:38:51 39° NNW 22:59:11 10° NNE visible
17 Apr 13.9 00:57:14 10° NW 01:10:59 18° NNW 01:22:34 10° NNE visible
17 Apr 13.6 03:34:35 10° NNW 03:42:52 15° N 03:49:13 10° NE visible
17 Apr 12.4 17:53:32 10° SSW 18:05:15 50° SE 18:24:56 10° ENE visible
17 Apr 12.7 20:14:05 10° WSW 20:30:22 69° NW 20:53:57 10° NE visible
17 Apr 13.6 22:41:37 10° W 22:59:45 32° NNW 23:18:35 10° NNE visible
18 Apr 13.9 01:20:35 10° NW 01:32:49 17° N 01:42:56 10° NNE visible
18 Apr 13.4 03:54:09 10° NNW 04:03:52 18° NNE 04:10:49 10° NE visible
18 Apr 12.3 18:12:27 10° SW 18:24:42 64° SE 18:45:46 10° ENE visible
18 Apr 13.0 20:34:03 10° WSW 20:50:33 57° NNW 21:13:33 10° NE visible
18 Apr 13.8 23:03:45 10° WNW 23:20:59 27° NNW 23:38:09 10° NNE visible
19 Apr 13.9 01:43:11 10° NW 01:54:41 16° N 02:03:58 10° NNE visible
19 Apr 13.1 04:13:29 10° NNW 04:24:36 23° NNE 04:31:58 10° ENE visible
19 Apr 12.3 18:31:33 10° SW 18:44:14 80° SE 19:06:11 10° NE visible
19 Apr 13.2 20:54:22 10° W 21:10:58 47° NNW 21:33:04 10° NE visible
19 Apr 13.9 23:26:24 10° WNW 23:42:34 23° NNW 23:57:59 10° NNE visible
20 Apr 13.8 02:04:43 10° NNW 02:16:25 17° N 02:25:30 10° NE visible
20 Apr 12.8 04:32:45 10° NNW 04:45:04 30° NNE 04:52:38 10° E visible
20 Apr 12.4 18:50:52 10° SW 19:03:54 84° NW 19:26:16 10° NE visible
20 Apr 13.5 21:15:07 10° W 21:31:39 38° NNW 21:52:34 10° NE visible
20 Apr 14.0 23:49:22 10° NW 00:04:26 20° NNW 00:18:15 10° NNE visible
21 Apr 13.7 02:25:19 10° NNW 02:37:54 19° N 02:47:10 10° NE visible
21 Apr 12.4 04:52:05 10° NW 05:05:18 39° NNE 05:12:52 10° E visible
21 Apr 12.6 19:10:25 10° WSW 19:23:48 68° NW 19:46:07 10° NE visible
21 Apr 13.7 21:36:22 10° W 21:52:38 32° NNW 22:12:10 10° NNE visible
22 Apr 14.0 00:12:13 10° NW 00:26:30 19° N 00:39:06 10° NNE visible
22 Apr 13.5 02:45:19 10° NNW 02:59:05 23° NNE 03:08:36 10° ENE visible
22 Apr 11.9 05:11:32 10° NW 05:25:18 53° NNE 05:32:44 10° ESE visible
22 Apr 12.9 19:30:16 10° WSW 19:43:56 55° NNW 20:05:47 10° NE visible
22 Apr 13.8 21:58:08 10° WNW 22:13:58 27° NNW 22:31:57 10° NNE visible
23 Apr 14.0 00:34:28 10° NW 00:48:36 19° N 01:00:32 10° NE visible
23 Apr 13.2 03:05:00 10° NNW 03:19:58 28° NNE 03:29:39 10° ENE visible
23 Apr 11.4 05:31:09 10° NW 05:45:02 73° NE 05:52:17 10° ESE visible
23 Apr 13.2 19:50:28 10° W 20:04:20 45° NNW 20:25:23 10° NE visible
23 Apr 14.0 22:20:21 10° WNW 22:35:38 23° NNW 22:52:06 10° NNE visible
24 Apr 13.9 00:55:54 10° NW 01:10:32 20° N 01:22:19 10° NE visible
24 Apr 12.9 03:24:32 10° NW 03:40:34 35° NNE 03:50:16 10° E visible
24 Apr 13.5 20:11:03 10° W 20:24:59 37° NNW 20:45:00 10° NE visible
24 Apr 14.0 22:42:49 10° NW 22:57:37 21° N 23:12:45 10° NE visible
25 Apr 13.7 01:16:33 10° NNW 01:32:13 22° NNE 01:44:07 10° ENE visible
25 Apr 12.5 03:44:03 10° NW 04:00:54 45° NNE 04:10:28 10° E visible
25 Apr 12.4 18:07:21 10° WSW 18:18:08 66° NNW 18:37:50 10° NE visible
25 Apr 13.7 20:32:05 10° WNW 20:45:57 30° NNW 21:04:42 10° NNE visible
